EW1458 Weather Reports


Display with metric or nautical units.
time (UTC)temp
F
wind
direction
speed
MPH
gust
MPH
rain 1hr
in
rain 24hr
in
rain mn
in
humidity
%
barometer
mb
20260505011117 48 240 8.0 17.0 0.00 0.27 0.02 77 1007.1
20260505010615 48 260 5.0 15.0 0.00 0.29 0.02 77 1007.1
20260505010127 48 258 3.0 15.0 0.00 0.30 0.02 77 1007.1
20260505005613 48 248 8.0 15.0 0.00 0.31 0.02 76 1007.1
20260505005109 48 249 11.0 16.0 0.00 0.33 0.02 76 1007.2
20260505004609 49 255 6.0 16.0 0.00 0.34 0.02 76 1007.0
20260505003107 49 236 6.0 14.0 0.00 0.40 0.02 76 1006.4
20260505002606 49 246 7.0 15.0 0.00 0.41 0.02 75 1006.5
20260505002106 49 234 6.0 15.0 0.00 0.43 0.02 75 1006.6
20260505001607 49 268 6.0 15.0 0.00 0.44 0.02 75 1006.4
20260505001104 49 231 8.0 14.0 0.00 0.45 0.02 74 1006.1
20260505000603 49 235 5.0 14.0 0.00 0.47 0.02 74 1006.1
20260504235600 49 272 6.0 13.0 0.00 0.51 0.02 73 1005.9
20260504235100 49 280 9.0 13.0 0.00 0.51 0.02 73 1005.8
20260504234600 49 255 7.0 14.0 0.00 0.54 0.02 72 1005.7
20260504234057 50 259 9.0 14.0 0.00 0.55 0.02 72 1005.6
20260504233553 50 293 6.0 15.0 0.00 0.58 0.02 72 1005.5
20260504233053 50 247 8.0 15.0 0.00 0.59 0.02 71 1005.2
20260504232554 50 268 8.0 14.0 0.00 0.61 0.02 71 1005.4
20260504232053 50 243 11.0 14.0 0.00 0.62 0.02 70 1005.3
20260504231551 50 235 10.0 12.0 0.00 0.65 0.02 70 1005.1
20260504231052 50 236 7.0 13.0 0.00 0.66 0.02 70 1005.2
20260504230604 50 249 9.0 13.0 0.00 0.66 0.02 70 1005.1
20260504230058 50 249 9.0 13.0 0.00 0.67 0.02 69 1005.0
20260504225550 50 262 6.0 16.0 0.00 0.69 0.02 69 1004.8
20260504225050 50 232 6.0 16.0 0.00 0.71 0.02 69 1004.8
20260504224547 50 248 4.0 15.0 0.00 0.72 0.02 69 1004.6
20260504224048 50 250 8.0 11.0 0.00 0.74 0.02 70 1004.9
20260504223547 50 226 5.0 11.0 0.00 0.76 0.02 70 1004.5
20260504223046 50 238 8.0 11.0 0.00 0.78 0.02 69 1004.6
20260504222547 50 248 3.0 14.0 0.00 0.80 0.02 70 1004.4
20260504222045 50 236 9.0 14.0 0.00 0.83 0.02 69 1004.5
20260504221539 50 256 4.0 11.0 0.00 0.84 0.02 69 1004.4
20260504221051 50 237 4.0 16.0 0.00 0.85 0.02 68 1004.5
20260504220538 50 262 7.0 16.0 0.00 0.86 0.02 68 1004.4
20260504220037 50 244 8.0 12.0 0.00 0.86 0.02 68 1004.8
20260504215537 50 264 6.0 15.0 0.00 0.89 0.02 69 1004.6
20260504215038 50 250 9.0 15.0 0.00 0.90 0.02 69 1004.7
20260504214538 50 253 9.0 15.0 0.00 0.91 0.02 69 1004.8
20260504214037 50 239 6.0 15.0 0.00 0.93 0.02 68 1004.8
20260504213036 50 236 11.0 15.0 0.00 0.96 0.02 69 1004.7
20260504212550 50 286 5.0 15.0 0.00 0.98 0.02 69 1004.8
20260504212041 50 229 10.0 14.0 0.00 1.00 0.02 68 1004.7
20260504211532 50 226 10.0 19.0 0.00 1.01 0.02 68 1004.8
20260504211032 50 227 10.0 19.0 0.00 1.01 0.02 69 1004.8
20260504210532 50 221 9.0 17.0 0.00 1.02 0.02 68 1004.9
20260504205530 50 255 6.0 19.0 0.00 1.03 0.02 66 1004.7
20260504205030 50 249 7.0 19.0 0.00 1.04 0.02 68 1004.6
20260504204532 50 244 6.0 23.0 0.00 1.04 0.02 67 1004.6
20260504204030 50 230 10.0 23.0 0.00 1.05 0.02 66 1004.6
20260504203529 50 264 6.0 26.0 0.00 1.05 0.02 65 1004.7
20260504203029 50 240 7.0 26.0 0.00 1.05 0.02 65 1004.5
20260504202527 50 251 9.0 25.0 0.00 1.07 0.02 66 1004.5
20260504202025 50 248 12.0 25.0 0.00 1.08 0.02 67 1004.6
20260504201525 51 229 9.0 23.0 0.00 1.08 0.02 68 1004.6
20260504201025 51 226 8.0 28.0 0.00 1.09 0.02 67 1004.7
20260504200020 52 243 5.0 27.0 0.00 1.11 0.02 64 1004.2
20260504195518 53 228 8.0 24.0 0.00 1.11 0.02 63 1004.2
20260504195018 54 264 8.0 25.0 0.00 1.11 0.02 62 1004.4
20260504194517 54 260 14.0 25.0 0.00 1.13 0.02 61 1004.0
20260504194014 54 230 12.0 25.0 0.00 1.13 0.02 61 1003.7
20260504193513 54 255 13.0 29.0 0.00 1.15 0.02 60 1003.9
20260504193014 55 237 11.0 29.0 0.00 1.16 0.02 59 1003.8
20260504192513 55 255 13.0 36.0 0.00 1.16 0.02 58 1003.8
20260504192011 56 131 10.0 36.0 0.00 1.19 0.02 57 1003.6
20260504191510 56 229 18.0 28.0 0.00 1.20 0.02 53 1003.6
20260504191010 56 221 20.0 28.0 0.00 1.21 0.02 53 1003.8
20260504190512 56 255 14.0 28.0 0.00 1.24 0.02 53 1003.5
20260504190011 56 234 15.0 25.0 0.00 1.25 0.02 52 1003.5
20260504185510 56 247 12.0 28.0 0.00 1.26 0.02 52 1003.5
20260504185011 55 256 16.0 28.0 0.00 1.26 0.02 53 1003.3
20260504184511 56 242 22.0 25.0 0.00 1.27 0.02 50 1003.5
20260504184010 56 248 10.0 28.0 0.00 1.29 0.02 52 1003.5
20260504183508 55 240 15.0 28.0 0.00 1.29 0.02 51 1003.4
20260504183006 55 232 17.0 28.0 0.00 1.31 0.02 50 1003.8
20260504182505 55 251 15.0 25.0 0.00 1.32 0.02 49 1003.8
20260504182002 56 244 12.0 29.0 0.00 1.32 0.02 49 1003.7
20260504181500 56 235 19.0 29.0 0.00 1.33 0.02 47 1003.6
20260504181001 56 231 18.0 33.0 0.00 1.34 0.02 46 1003.8
20260504180459 56 256 13.0 33.0 0.00 1.36 0.02 45 1004.1
20260504175958 56 228 7.0 30.0 0.00 1.36 0.02 44 1003.7
20260504175458 57 237 11.0 26.0 0.00 1.36 0.02 39 1003.7
20260504174955 57 256 15.0 26.0 0.00 1.37 0.02 38 1003.7
20260504174453 57 194 11.0 26.0 0.00 1.38 0.02 42 1003.4
20260504173953 57 238 16.0 27.0 0.00 1.39 0.02 39 1003.7
20260504173453 58 242 9.0 27.0 0.00 1.40 0.02 42 1003.8
20260504172952 57 222 8.0 24.0 0.00 1.42 0.02 42 1003.7
20260504172451 57 219 6.0 24.0 0.00 1.43 0.02 39 1003.7
20260504171951 58 247 15.0 21.0 0.00 1.44 0.02 39 1003.8
20260504170949 57 252 11.0 25.0 0.00 1.47 0.02 40 1003.7
20260504170448 57 216 18.0 25.0 0.00 1.49 0.02 39 1003.7
20260504160432 56 240 13.0 20.0 0.00 1.87 0.02 41 1004.3
20260504150920 53 221 20.0 25.0 0.00 2.23 0.02 37 1004.6
20260504150418 52 244 11.0 25.0 0.00 2.24 0.02 40 1004.7
20260504140916 49 268 15.0 29.0 0.00 2.36 0.02 49 1004.9
20260504140415 49 266 12.0 29.0 0.00 2.38 0.02 54 1004.9
20260504130403 46 269 13.0 20.0 0.00 2.40 0.02 64 1004.6
20260504110335 41 271 14.0 18.0 0.00 2.40 0.02 79 1002.7
20260504100321 41 227 12.0 16.0 0.00 2.41 0.02 84 1001.7
20260504081805 42 270 11.0 17.0 0.00 2.41 0.02 90 999.2
20260504081306 42 290 12.0 17.0 0.00 2.41 0.02 90 999.4
20260504080804 42 260 11.0 18.0 0.00 2.41 0.02 90 999.3
20260504080304 42 276 12.0 18.0 0.00 2.41 0.02 90 999.2
20260504070258 42 291 10.0 16.0 0.00 2.41 0.02 90 998.7
20260504050253 40 274 8.0 18.0 0.00 2.41 0.02 94 997.0
20260504045752 40 265 6.0 18.0 0.00 2.41 0.02 94 997.0
20260504045253 40 230 12.0 15.0 0.00 2.41 0.02 94 997.0
20260504044804 40 293 8.0 21.0 0.01 2.41 0.02 93 996.9
20260504044249 40 295 10.0 23.0 0.01 2.41 0.02 92 996.8
20260504043749 40 279 12.0 23.0 0.01 2.41 0.02 92 996.9
20260504043250 39 285 10.0 25.0 0.01 2.41 0.02 93 996.8
20260504042749 39 299 13.0 25.0 0.01 2.41 0.02 92 996.8
20260504042249 39 257 11.0 22.0 0.01 2.41 0.02 92 996.8
20260504041749 39 292 16.0 21.0 0.01 2.41 0.02 93 996.7
20260504040750 39 303 9.0 21.0 0.01 2.41 0.02 93 996.5
20260504040250 39 295 17.0 19.0 0.02 2.41 0.02 93 996.4
20260504035749 39 292 7.0 19.0 0.02 2.41 0.02 93 996.6
20260504035248 39 294 8.0 19.0 0.02 2.41 0.02 93 996.3
20260504034748 39 297 14.0 19.0 0.02 2.40 0.01 93 996.1
20260504034247 39 276 8.0 20.0 0.03 2.40 0.01 93 996.1
20260504033747 39 272 7.0 25.0 0.05 2.40 0.01 93 995.9
20260504033247 39 302 18.0 30.0 0.06 2.40 0.01 92 995.9
20260504032746 39 298 18.0 30.0 0.07 2.40 0.01 92 995.9
20260504032246 39 257 11.0 30.0 0.08 2.40 0.01 92 995.6
20260504031746 39 279 10.0 30.0 0.08 2.40 0.01 92 995.7
20260504030745 39 288 12.0 32.0 0.10 2.40 0.01 92 995.4
20260504030245 39 305 14.0 30.0 0.09 2.39 0.00 92 995.2
20260504025745 39 291 13.0 30.0 0.11 2.39 2.39 92 995.1
20260504025246 39 302 18.0 23.0 0.12 2.39 2.39 93 995.0
20260504024744 39 297 18.0 23.0 0.12 2.38 2.38 93 995.0
20260504024240 39 299 13.0 23.0 0.13 2.37 2.37 93 995.1
20260504023240 39 292 18.0 29.0 0.13 2.34 2.34 92 994.8
20260504022740 39 272 10.0 24.0 0.14 2.33 2.33 93 994.7
20260504021738 38 299 11.0 26.0 0.17 2.32 2.32 93 994.4
20260504021251 38 304 17.0 26.0 0.17 2.31 2.31 92 994.3
20260504020735 38 303 17.0 23.0 0.17 2.30 2.30 93 994.2
20260504020234 38 288 14.0 25.0 0.17 2.30 2.30 93 994.2
20260504015727 38 312 18.0 30.0 0.18 2.28 2.28 93 994.2
20260504015225 38 306 13.0 30.0 0.18 2.27 2.27 93 994.2
20260504013721 37 292 15.0 26.0 0.17 2.22 2.22 92 993.9
20260504013220 37 302 20.0 31.0 0.18 2.21 2.21 92 993.7
20260504012216 37 308 17.0 32.0 0.18 2.17 2.17 91 993.8
20260504011714 38 295 24.0 32.0 0.17 2.15 2.16 90 993.6